This is the latest recevied weather packets stored in our database for station/object DORR-WX. If no packets are shown the sender has not sent any weather packets the latest 10 day(s).
| Time | Temp. | Humidity | Pressure | Rain* | Wind** | Luminosity | Snow |
|---|---|---|---|---|---|---|---|
| 1788159674 | 69° F | 90% | 743 mmHg | 0 in | - | - | - |
| 1788158846 | 69° F | 88% | 743.1 mmHg | 0 in | - | - | - |
| 1788157874 | 69° F | 88% | 743.1 mmHg | 0 in | - | - | - |
| 1788156976 | 69° F | 88% | 743.1 mmHg | 0 in | - | - | - |
| 1788156072 | 70° F | 88% | 743.1 mmHg | 0 in | - | - | - |
| 1788155169 | 70° F | 84% | 743.2 mmHg | 0 in | - | - | - |
| 1788154273 | 70° F | 82% | 743.2 mmHg | 0 in | - | - | - |
| 1788153375 | 70° F | 82% | 743.2 mmHg | 0 in | - | - | - |
| 1788152477 | 70° F | 82% | 743.2 mmHg | 0 in | - | - | - |
| 1788151575 | 70° F | 82% | 743.6 mmHg | 0 in | - | - | - |
| 1788150674 | 70° F | 80% | 743.4 mmHg | 0 in | - | - | - |
| 1788149768 | 71° F | 80% | 743.4 mmHg | 0 in | - | - | - |
| 1788148874 | 71° F | 80% | 743.4 mmHg | 0 in | - | - | - |
| 1788147969 | 71° F | 77% | 742.7 mmHg | 0 in | - | - | - |
| 1788147383 | 71° F | 77% | 742.7 mmHg | 0 in | - | - | - |
| 1788146174 | 71° F | 78% | 742.6 mmHg | 0 in | - | - | - |
| 1788145274 | 71° F | 78% | 742.6 mmHg | 0 in | - | - | - |
| 1788144372 | 72° F | 74% | 742.8 mmHg | 0 in | - | - | - |
| 1788143474 | 72° F | 77% | 743.1 mmHg | 0 in | - | - | - |
| 1788142572 | 71° F | 77% | 743.1 mmHg | 0 in | - | - | - |
| 1788141982 | 71° F | 77% | 743.1 mmHg | 0 in | - | - | - |
| 1788140773 | 72° F | 83% | 742.6 mmHg | 0 in | - | - | - |
| 1788139875 | 72° F | 83% | 742.6 mmHg | 0 in | - | - | - |
| 1788138068 | 73° F | 83% | 742.6 mmHg | 0 in | - | - | - |
| 1788137172 | 73° F | 80% | 742.9 mmHg | 0 in | - | - | - |
* Rain latest hour (hover to see other rain measurements)
** Current wind speed in m/s (hover to see current wind gust speed)